Content
SEND FEEDBACK

Daily
Averages
Monthly
Summary
United States of America

BANTRY, NORTH DAKOTA


Home > North America > United States > North Dakota
Elevation: 1460 feet     Latitude: 48 30N     Longitude: 100 36W

WEATHER
 
SELECT A DAY
Number of Records: 92,857;   Date Range: 11/13/98 - 10/20/14
 
SHARE

PRINT THIS DATA

[ ← Previous Day ]
WEATHER ALMANAC - JANUARY 24, 2013
[ Next Day → ]
[ °C ]   °F
Weather ElementAverageHighLow
Temperature-2.6 °F14 °F (9:15 pm)-11.2 °F (12:55 am)
Dewpoint-9 °F8.6 °F (9:15 pm)-20.2 °F (12:55 am)
Humidity74.1 %92 % (10:55 pm)64 % (12:55 am)
Barometer30.13 in30.50 in (12:35 am)29.84 in (8:15 pm)
Wind Speed18.2 mph31.1 mph (10:55 pm)
Wind Gust43.7 mph (10:55 pm)
Weather ElementAverage
Visibility8 mi
Wind DirectionSSE (172.5 °)

Weather ElementTotal
Precipitation0.04 in
Heating Degree Days63.6 (Base 65)
Averaged from 69 records on January 24, 2013
WEATHER CONDITIONS BREAKOUT
WIND DIRECTION BREAKOUT
WEATHER BY HOUR - JANUARY 24, 2013
[ °C ]   °F
Local TimeTemperatureDewpointHumidityBarometerVisibilityWind DirectionWind SpeedGust SpeedPrecipitationEventsConditions
12:35 AM0.0 °F0.0 °F30.50 in10.0 miSE (130°)11.5 mphClear
12:55 AM-11.2 °F-20.2 °F64 %30.50 in10.0 miSE (140°)11.5 mph17.3 mphClear
1:15 AM-11.2 °F-20.2 °F64 %30.49 in10.0 miSE (140°)12.7 mphClear
1:35 AM-11.2 °F-20.2 °F64 %30.48 in10.0 miSSE (150°)12.7 mph18.4 mphClear
1:55 AM-11.2 °F-18.4 °F70 %30.47 in10.0 miSSE (150°)13.8 mph18.4 mphClear
2:15 AM-11.2 °F-20.2 °F64 %30.46 in10.0 miSE (140°)13.8 mphClear
2:35 AM-11.2 °F-20.2 °F64 %30.46 in10.0 miSE (140°)15.0 mphClear
2:55 AM-11.2 °F-18.4 °F70 %30.45 in10.0 miSE (140°)15.0 mphClear
3:15 AM-11.2 °F-18.4 °F70 %30.43 in10.0 miSE (130°)16.1 mphScattered Clouds
3:35 AM-11.2 °F-18.4 °F70 %30.40 in10.0 miSE (130°)16.1 mphMostly Cloudy
3:55 AM-11.2 °F-18.4 °F70 %30.40 in10.0 miSE (130°)13.8 mphMostly Cloudy
4:15 AM-11.2 °F-18.4 °F70 %30.41 in10.0 miSSE (150°)18.4 mphMostly Cloudy
4:35 AM-11.2 °F-18.4 °F70 %30.40 in10.0 miSE (140°)18.4 mphOvercast
4:55 AM-11.2 °F-18.4 °F70 %30.40 in10.0 miSE (140°)15.0 mph20.7 mphOvercast
5:15 AM-11.2 °F-18.4 °F70 %30.40 in10.0 miSE (140°)17.3 mph21.9 mphOvercast
5:35 AM-11.2 °F-18.4 °F70 %30.38 in10.0 miSE (140°)17.3 mph20.7 mphOvercast
5:55 AM-11.2 °F-18.4 °F70 %30.36 in10.0 miSE (140°)15.0 mph19.6 mphScattered Clouds
6:15 AM-11.2 °F-18.4 °F70 %30.34 in10.0 miSE (130°)13.8 mph23.0 mphClear
6:35 AM-9.4 °F-16.6 °F71 %30.32 in10.0 miSE (130°)17.3 mphClear
6:55 AM-9.4 °F-16.6 °F71 %30.30 in10.0 miSE (130°)17.3 mphClear
7:15 AM-9.4 °F-16.6 °F71 %30.28 in10.0 miSE (130°)18.4 mph25.3 mphClear
7:35 AM-11.2 °F-16.6 °F77 %30.27 in10.0 miSE (130°)20.7 mphClear
7:55 AM-11.2 °F-16.6 °F77 %30.25 in10.0 miSE (130°)17.3 mph25.3 mphClear
8:15 AM-11.2 °F-16.6 °F77 %30.25 in10.0 miSE (130°)17.3 mph26.5 mphClear
8:35 AM-11.2 °F-18.4 °F70 %30.24 in10.0 miSE (130°)20.7 mph27.6 mphClear
8:55 AM-9.4 °F-16.6 °F71 %30.24 in10.0 miSE (140°)18.4 mph25.3 mphClear
9:15 AM-9.4 °F-16.6 °F71 %30.21 in10.0 miSE (140°)18.4 mph27.6 mphPartly Cloudy
9:35 AM-9.4 °F-16.6 °F71 %30.21 in10.0 miSSE (150°)17.3 mph25.3 mphClear
9:55 AM-9.4 °F-16.6 °F71 %30.19 in10.0 miSSE (150°)20.7 mph29.9 mphPartly Cloudy
10:15 AM-7.6 °F-16.6 °F65 %30.17 in10.0 miSSE (150°)20.7 mph28.8 mphMostly Cloudy
10:35 AM-7.6 °F-16.6 °F65 %30.19 in10.0 miSSE (150°)13.8 mph27.6 mphOvercast
10:55 AM-7.6 °F-14.8 °F71 %30.16 in10.0 miSSE (150°)21.9 mph26.5 mphMostly Cloudy
11:15 AM-5.8 °F-14.8 °F65 %30.16 in10.0 miSE (140°)18.4 mph28.8 mphScattered Clouds
11:35 AM-5.8 °F-13.0 °F71 %30.16 in10.0 miSSE (150°)19.6 mph24.2 mphMostly Cloudy
11:55 AM-4.0 °F-13.0 °F65 %30.12 in10.0 miSE (140°)24.2 mph28.8 mphMostly Cloudy
12:15 PM-4.0 °F-13.0 °F65 %30.13 in10.0 miSSE (150°)19.6 mph29.9 mphMostly Cloudy
12:35 PM-4.0 °F-11.2 °F71 %30.12 in10.0 miSSE (150°)18.4 mph24.2 mphOvercast
12:55 PM-2.2 °F-11.2 °F66 %30.08 in10.0 miSSE (150°)20.7 mph26.5 mphScattered Clouds
1:15 PM-2.2 °F-11.2 °F66 %30.05 in10.0 miSSE (160°)25.3 mph29.9 mphPartly Cloudy
1:35 PM-2.2 °F-9.4 °F71 %30.03 in8.0 miSSE (150°)18.4 mph35.7 mphMostly Cloudy
1:55 PM-2.2 °F-9.4 °F71 %30.02 in1.8 miSSE (160°)23.0 mph29.9 mphSnowLight Snow
2:15 PM-2.2 °F-7.6 °F78 %29.98 in0.8 miSSE (160°)24.2 mph32.2 mphRainLight Rain
2:35 PM-0.4 °F-7.6 °F72 %29.97 in2.5 miSSE (150°)21.9 mph28.8 mphHaze
2:55 PM-0.4 °F-5.8 °F78 %29.94 in0.8 miSSE (150°)19.6 mph31.1 mphRainLight Rain
3:15 PM-0.4 °F-4.0 °F85 %29.93 in3.0 miSSE (160°)20.7 mph28.8 mphOvercast
3:35 PM1.4 °F-2.2 °F85 %29.93 in3.0 miSSE (160°)17.3 mph25.3 mphOvercast
3:55 PM1.4 °F-2.2 °F85 %29.94 in5.0 miSouth (170°)15.0 mph24.2 mphOvercast
4:15 PM3.2 °F-0.4 °F85 %29.94 in6.0 miSouth (180°)15.0 mph26.5 mphOvercast
4:35 PM3.2 °F-0.4 °F85 %29.93 in4.0 miSouth (180°)15.0 mph23.0 mphOvercast
4:55 PM5.0 °F-0.4 °F78 %29.92 in6.0 miSouth (180°)12.7 mphOvercast
5:35 PM5.0 °F-0.4 °F78 %29.90 in10.0 miSouth (180°)12.7 mphOvercast
5:55 PM6.8 °F-0.4 °F72 %29.90 in10.0 miSouth (180°)13.8 mphOvercast
6:15 PM6.8 °F1.4 °F79 %29.88 in10.0 miSouth (180°)12.7 mph18.4 mphOvercast
6:35 PM6.8 °F1.4 °F79 %29.89 in10.0 miSouth (180°)12.7 mphOvercast
6:55 PM6.8 °F1.4 °F79 %29.87 in10.0 miSouth (170°)10.4 mph16.1 mphOvercast
7:35 PM8.6 °F3.2 °F79 %29.87 in10.0 miSSW (200°)12.7 mphOvercast
7:55 PM8.6 °F5.0 °F85 %29.85 in10.0 miSSW (210°)16.1 mphOvercast
8:15 PM10.4 °F5.0 °F79 %29.84 in10.0 miSSW (210°)15.0 mphOvercast
8:35 PM10.4 °F6.8 °F85 %29.84 in10.0 miSSW (210°)16.1 mphOvercast
8:55 PM10.4 °F6.8 °F85 %29.84 in10.0 miWSW (250°)13.8 mph31.1 mphMostly Cloudy
9:15 PM14.0 °F8.6 °F79 %29.84 in4.0 miWest (280°)21.9 mph31.1 mphHaze
9:35 PM12.2 °F8.6 °F85 %29.84 in1.8 miWNW (300°)25.3 mph33.4 mphSnowLight Snow
9:55 PM12.2 °F6.8 °F79 %29.84 in6.0 miWNW (290°)28.8 mph33.4 mphHaze
10:15 PM10.4 °F6.8 °F85 %29.84 in0.8 miWNW (300°)27.6 mph35.7 mphRainLight Rain
10:35 PM8.6 °F5.0 °F85 %29.84 in1.2 miWNW (290°)28.8 mph35.7 mph0.01 inSnowLight Snow
10:55 PM6.8 °F5.0 °F92 %29.85 in0.5 miWNW (300°)31.1 mph43.7 mph0.03 inSnowSnow
11:15 PM6.8 °F1.4 °F79 %29.87 in0.8 miWNW (290°)26.5 mph41.4 mphRainLight Rain
11:35 PM6.8 °F1.4 °F79 %29.88 in1.0 miWNW (300°)27.6 mph40.3 mphRainLight Rain
11:55 PM5.0 °F-0.4 °F78 %29.89 in5.0 miWNW (300°)26.5 mph33.4 mphHaze
Hourly data recorded from KRUG, located miles away from Bantry, North Dakota







STORIES FROM OUR PARTNERS